Weather reports worldwide

Advertisment
Annecy-Meythet, France (7490): temperature & dewpoint: 20.09.2018 17:00:00 - 26.09.2018 17:00:00 (CEST)Annecy-Meythet, France (7490): temperature 5cm: 20.09.2018 17:00:00 - 26.09.2018 17:00:00 (CEST)Annecy-Meythet, France (7490): temperature -20cm & temperature -100cm: 20.09.2018 17:00:00 - 26.09.2018 17:00:00 (CEST)Annecy-Meythet, France (7490): wind speed & gusts: 20.09.2018 17:00:00 - 26.09.2018 17:00:00 (CEST)Annecy-Meythet, France (7490): wind direction: 20.09.2018 17:00:00 - 26.09.2018 17:00:00 (CEST)Annecy-Meythet, France (7490): reduced air pressure: 20.09.2018 17:00:00 - 26.09.2018 17:00:00 (CEST)Annecy-Meythet, France (7490): visibility: 20.09.2018 17:00:00 - 26.09.2018 17:00:00 (CEST)Annecy-Meythet, France (7490): precipitation: 20.09.2018 17:00:00 - 26.09.2018 17:00:00 (CEST)
Date & Time tt [°C] td [°C] tt 5cm [°C] tt -20cm [°C] tt -100cm [°C] ff [km/h] ff [kn] fx [km/h] fx [kn] dd ppp [hPa] vv [km] rr [mm]
26.09.2018 17:00:00 23,6 8,8 28,2 17,2 18,7 6 3 26 14 S 1030,0 60 0,0
26.09.2018 16:00:00 23,0 9,0 28,6 16,6 18,7 7 4 21 11 SW 1030,3 60 0,0
26.09.2018 15:00:00 21,7 8,6 28,8 16,0 18,7 6 3 15 8 WSW 1031,2 60 0,0
26.09.2018 14:00:00 20,6 8,9 26,5 15,3 18,7 5 3 13 7 SSE 1032,2 60 0,0
26.09.2018 13:00:00 18,5 7,9 24,7 14,7 18,7 5 3 13 7 E 1033,5 60 0,0
26.09.2018 12:00:00 16,7 6,8 22,5 14,2 18,7 4 2 11 6 E 1034,3 58 0,0
26.09.2018 11:00:00 14,3 6,1 18,8 13,9 18,7 3 2 11 6 E 1035,1 60 0,0
26.09.2018 10:00:00 12,9 5,6 14,1 13,8 18,7 0 0 6 3 N 1035,2 43 0,0
26.09.2018 09:00:00 9,4 5,0 4,0 14,0 18,7 0 0 9 5 N 1035,5 20 0,0
26.09.2018 08:00:00 5,6 4,1 2,5 14,2 18,7 5 3 9 5 NE 1035,4 59 0,0
26.09.2018 07:00:00 5,3 3,8 2,7 14,4 18,8 0 0 5 3 N 1034,8 60 0,0
26.09.2018 06:00:00 5,9 3,4 3,2 14,6 18,7 3 2 7 4 WSW 1034,5 60 0,0
26.09.2018 05:00:00 6,8 4,1 4,0 14,8 18,8 2 1 17 9 NNW 1034,2 60 0,0
26.09.2018 04:00:00 7,6 4,2 4,8 15,0 18,7 7 4 14 8 NW 1034,0 60 0,0
26.09.2018 03:00:00 8,3 4,5 5,4 15,2 18,8 6 3 18 10 NNW 1034,1 60 0,0
26.09.2018 02:00:00 8,6 4,6 6,0 15,4 18,8 8 4 12 7 NW 1033,8 60 0,0
26.09.2018 01:00:00 8,9 4,5 5,4 15,7 18,8 6 3 10 5 NW 1033,5 60 0,0
26.09.2018 00:00:00 10,1 4,5 6,1 15,9 18,8 3 2 8 5 NW 1032,8 60 0,0
25.09.2018 23:00:00 11,3 4,5 6,8 16,2 18,8 3 1 13 7 NNE 1032,1 60 0,0
25.09.2018 22:00:00 12,2 4,4 7,3 16,4 18,8 2 1 14 8 S 1031,5 60 0,0
25.09.2018 21:00:00 13,3 4,7 10,9 16,7 18,8 8 4 21 11 NNE 1031,0 60 0,0
25.09.2018 20:00:00 14,4 4,7 12,2 16,8 18,8 10 6 24 13 NNE 1030,3 60 0,0
25.09.2018 19:00:00 16,3 5,6 16,4 16,9 18,8 16 9 26 14 NNE 1029,5 53 0,0
25.09.2018 18:00:00 18,3 6,2 22,4 16,8 18,8 9 5 27 14 N 1028,8 56 0,0
25.09.2018 17:00:00 18,3 5,5 22,7 16,6 18,8 16 8 26 14 NE 1029,1 54 0,0
25.09.2018 16:00:00 18,2 4,4 22,8 16,3 18,8 16 8 29 15 NNW 1029,3 52 0,0
25.09.2018 15:00:00 18,0 5,6 22,4 15,9 18,8 16 8 31 17 NNW 1029,5 60 0,0
25.09.2018 14:00:00 17,2 5,5 22,8 15,3 18,9 7 4 25 13 N 1030,2 60 0,0
25.09.2018 13:00:00 15,7 5,6 20,9 14,8 18,8 7 4 24 13 ENE 1030,8 60 0,0
25.09.2018 12:00:00 14,1 5,2 19,2 14,4 18,8 14 8 35 19 ENE 1031,6 60 0,0
25.09.2018 11:00:00 12,9 4,8 14,6 14,2 18,8 13 7 21 12 NE 1031,9 34 0,0
25.09.2018 10:00:00 11,5 5,1 14,7 14,1 18,8 15 8 21 11 ENE 1032,1 60 0,2
25.09.2018 09:00:00 9,9 4,5 6,1 14,2 18,8 5 3 14 8 NE 1032,0 58 0,0
25.09.2018 08:00:00 7,1 3,7 3,2 14,3 18,8 8 5 16 8 NNE 1032,2 57 0,0
25.09.2018 07:00:00 7,1 3,3 4,0 14,5 18,8 5 3 11 6 NW 1031,8 60 0,0
25.09.2018 06:00:00 7,7 3,4 4,3 14,7 18,9 7 4 16 9 NNE 1031,6 60 0,0
25.09.2018 05:00:00 7,9 3,0 3,7 14,9 18,9 6 4 9 5 NNE 1031,5 60 0,0
25.09.2018 04:00:00 8,6 3,0 6,3 15,1 18,9 8 4 21 11 NE 1031,1 60 0,0
25.09.2018 03:00:00 9,1 3,1 6,1 15,2 18,9 12 7 22 12 NNE 1031,1 60 0,0
25.09.2018 02:00:00 9,7 3,0 7,1 15,4 18,9 10 5 22 12 N 1030,7 60 0,0
25.09.2018 01:00:00 9,9 3,4 7,8 15,6 18,9 8 4 22 12 NNE 1030,5 60 0,0
25.09.2018 00:00:00 10,6 3,1 9,1 15,8 18,9 12 7 34 18 NNE 1029,9 60 0,0
24.09.2018 23:00:00 11,3 3,3 10,0 16,1 18,8 18 10 41 22 NNE 1029,5 60 0,0
24.09.2018 22:00:00 11,8 3,0 10,8 16,4 18,8 28 15 55 30 NNE 1029,0 60 0,0
24.09.2018 21:00:00 12,2 3,4 11,3 16,7 18,8 34 18 55 30 NNE 1028,5 60 0,0
24.09.2018 20:00:00 12,7 3,9 11,8 17,1 18,9 29 16 53 29 N 1027,9 60 0,0
24.09.2018 19:00:00 13,7 4,0 13,8 17,3 18,8 33 18 58 31 N 1027,2 31 0,0
24.09.2018 18:00:00 14,6 4,8 16,6 17,6 18,8 33 18 58 32 N 1026,7 31 0,0
24.09.2018 17:00:00 14,8 5,8 15,6 17,7 18,8 35 19 59 32 N 1026,5 34 0,0
24.09.2018 16:00:00 15,0 6,3 16,2 17,8 18,8 31 17 59 32 NNE 1026,6 35 0,0
24.09.2018 15:00:00 15,7 7,2 16,2 17,8 18,8 31 17 69 37 NNE 1026,7 41 0,0
24.09.2018 14:00:00 15,4 7,4 19,0 17,7 18,9 35 19 57 31 NNE 1027,1 33 0,0
24.09.2018 13:00:00 15,5 7,5 19,6 17,4 18,8 27 15 52 28 NNE 1026,7 39 0,0
24.09.2018 12:00:00 14,7 7,5 18,6 17,3 18,8 34 18 53 29 NNE 1026,7 43 0,2
24.09.2018 11:00:00 14,3 8,0 16,5 17,4 18,9 29 16 48 26 NNE 1026,6 51 0,0
24.09.2018 10:00:00 13,2 6,8 13,0 17,6 18,8 27 15 46 25 N 1026,6 60 0,0
24.09.2018 09:00:00 11,7 6,4 9,5 18,0 18,8 21 12 35 19 NNE 1026,7 60 0,0
24.09.2018 08:00:00 10,6 5,8 8,9 18,3 18,9 14 8 26 14 NNE 1026,7 60 0,0
24.09.2018 07:00:00 11,2 6,3 9,0 18,6 18,9 9 5 16 9 NNE 1026,2 60 0,2
24.09.2018 06:00:00 10,6 8,7 8,8 19,0 18,9 7 4 14 8 NNW 1026,3 60 0,0
24.09.2018 05:00:00 11,7 8,4 8,9 19,3 18,9 2 1 13 7 WSW 1025,5 60 0,2
24.09.2018 04:00:00 12,2 9,0 10,3 19,7 18,8 7 4 32 18 NW 1025,2 60 0,2
24.09.2018 03:00:00 13,4 9,8 11,8 20,2 18,9 22 12 37 20 N 1024,8 60 0,4
24.09.2018 02:00:00 14,4 12,1 13,5 20,6 18,9 14 7 25 14 N 1023,9 20 1,0
24.09.2018 01:00:00 15,2 13,4 14,5 20,9 18,8 13 7 30 16 NNE 1022,6 6 2,0
24.09.2018 00:00:00 17,1 13,0 15,7 21,2 18,8 17 9 48 26 WNW 1020,1 60 0,0
23.09.2018 23:00:00 20,0 18,3 19,1 21,3 18,9 3 2 9 5 NE 1018,3 60 0,0
23.09.2018 22:00:00 20,2 18,1 19,2 21,5 18,9 7 4 10 6 N 1018,6 60 0,0
23.09.2018 21:00:00 20,7 18,1 18,6 21,6 18,9 6 3 24 13 SW 1018,5 60 0,6
23.09.2018 20:00:00 23,6 15,6 18,8 21,7 18,9 11 6 21 12 W 1017,3 11 0,2
23.09.2018 19:00:00 26,4 13,5 25,6 21,8 18,9 14 8 24 13 S 1015,9 60 0,0
23.09.2018 18:00:00 26,5 13,6 26,6 21,7 18,9 15 8 32 18 SSW 1016,2 19 0,0
23.09.2018 17:00:00 26,9 13,6 27,7 21,4 18,9 19 10 36 19 WSW 1016,0 59 0,0
23.09.2018 16:00:00 28,1 14,0 32,8 20,9 18,9 17 9 37 20 WSW 1016,0 53 0,0
23.09.2018 15:00:00 27,8 14,8 30,3 20,4 18,9 16 8 29 16 SW 1016,6 50 0,0
23.09.2018 14:00:00 26,6 14,4 31,7 19,8 18,9 13 7 24 13 W 1017,4 60 0,0
23.09.2018 13:00:00 24,8 14,0 27,9 19,3 18,9 10 5 20 11 SSW 1018,8 60 0,0
23.09.2018 12:00:00 22,1 12,1 24,6 18,9 18,9 3 2 12 7 NNE 1020,3 57 0,0
23.09.2018 11:00:00 20,4 11,9 20,0 18,8 18,9 2 1 8 4 E 1021,3 60 0,0
23.09.2018 10:00:00 18,4 11,9 18,1 18,7 18,9 0 0 8 4 N 1021,9 60 0,0
23.09.2018 09:00:00 17,4 11,9 16,5 18,7 18,9 6 4 10 5 NNW 1021,8 60 0,0
23.09.2018 08:00:00 16,6 11,5 16,2 18,8 18,9 5 3 9 5 S 1021,9 60 0,0
23.09.2018 07:00:00 17,3 11,8 15,1 18,9 18,9 4 2 14 7 NNE 1021,5 60 0,0
23.09.2018 06:00:00 17,0 12,3 15,7 19,0 18,9 6 4 10 5 ENE 1022,0 60 0,0
23.09.2018 05:00:00 17,7 11,7 16,9 19,1 18,9 5 3 9 5 NW 1022,4 60 0,0
23.09.2018 04:00:00 17,4 12,1 16,7 19,1 18,9 7 4 9 5 ENE 1022,7 60 0,0
23.09.2018 03:00:00 17,3 11,3 16,7 19,2 18,9 3 1 8 4 SE 1023,2 60 0,0
23.09.2018 02:00:00 17,6 10,9 16,7 19,2 18,9 4 2 7 4 N 1023,3 39 0,0
23.09.2018 01:00:00 17,6 9,7 16,7 19,4 18,9 0 0 7 4 N 1023,3 60 0,0
23.09.2018 00:00:00 17,8 9,4 16,8 19,5 18,9 5 3 9 5 NW 1023,0 60 0,0
22.09.2018 23:00:00 17,7 9,3 16,9 19,6 18,9 4 2 11 6 NE 1023,0 60 0,0
22.09.2018 22:00:00 18,2 8,7 17,2 19,8 18,9 6 4 12 7 NW 1022,3 60 0,0
22.09.2018 21:00:00 18,3 7,7 17,5 20,0 18,9 6 3 11 6 NNW 1022,0 60 0,0
22.09.2018 20:00:00 19,4 8,1 16,3 20,1 18,9 5 3 10 6 WNW 1021,1 4,3 0,0
22.09.2018 19:00:00 20,7 7,7 20,3 20,1 18,9 6 4 16 8 SSW 1020,6 60 0,0
22.09.2018 18:00:00 21,2 7,4 21,8 20,0 18,9 7 4 18 10 WSW 1020,6 60 0,0
22.09.2018 17:00:00 22,1 1,1 24,8 19,8 18,9 9 5 18 10 SSW 1020,7 60 0,0
22.09.2018 16:00:00 21,5 4,5 25,3 19,5 18,9 5 3 18 10 SW 1020,9 58 0,0
22.09.2018 15:00:00 20,9 8,2 27,1 18,9 18,9 7 4 15 8 SSW 1021,3 60 0,0
22.09.2018 14:00:00 19,5 8,5 26,0 18,5 18,9 8 4 17 9 S 1022,2 20 0,0
22.09.2018 13:00:00 18,5 9,0 21,9 18,0 18,9 6 4 17 9 SW 1022,8 60 0,0
22.09.2018 12:00:00 16,8 8,7 21,3 17,7 18,9 5 3 12 6 NNE 1023,5 60 0,0
22.09.2018 11:00:00 15,1 8,8 15,2 17,4 18,9 3 2 8 4 S 1024,3 60 0,0
22.09.2018 10:00:00 12,6 8,1 14,0 17,4 18,9 0 0 10 5 N 1024,7 60 0,0
22.09.2018 09:00:00 10,2 8,0 6,8 17,6 18,9 3 1 8 5 SW 1024,9 48 0,2
22.09.2018 08:00:00 7,8 6,9 5,1 17,9 18,9 4 2 6 4 N 1025,5 51 0,0
22.09.2018 07:00:00 8,1 6,9 6,0 18,2 18,9 5 3 12 6 NNE 1025,3 60 0,0
22.09.2018 06:00:00 8,8 7,6 6,1 18,5 18,9 2 1 6 3 NNW 1024,4 59 0,0
22.09.2018 05:00:00 9,7 8,1 7,3 18,8 18,9 4 2 10 5 SE 1024,7 60 0,0
22.09.2018 04:00:00 10,5 8,8 8,2 19,1 18,9 4 2 10 6 W 1024,3 60 0,0
22.09.2018 03:00:00 11,4 9,1 9,5 19,4 18,9 4 2 14 8 N 1023,9 60 0,0
22.09.2018 02:00:00 12,2 9,8 10,3 19,6 18,9 3 2 12 7 NNW 1023,9 60 0,0
22.09.2018 01:00:00 13,3 10,1 11,7 19,9 18,9 11 6 23 12 WNW 1023,7 60 0,0
22.09.2018 00:00:00 14,0 13,0 13,2 20,1 18,9 6 4 10 6 NW 1022,7 60 0,4
21.09.2018 23:00:00 13,6 12,0 13,0 20,3 18,9 4 2 25 14 SSE 1023,1 3,6 0,2
21.09.2018 22:00:00 16,1 10,2 15,3 20,5 18,9 11 6 35 19 W 1021,9 19 0,0
21.09.2018 21:00:00 17,4 11,7 17,1 20,7 18,8 17 9 35 19 WNW 1020,2 60 0,0
21.09.2018 20:00:00 19,0 13,0 18,6 20,9 18,9 16 9 41 22 NNW 1018,9 60 0,0
21.09.2018 19:00:00 21,6 11,6 19,7 21,0 18,9 18 10 47 26 NW 1017,1 51 0,0
21.09.2018 18:00:00 24,1 13,9 23,4 21,1 18,9 11 6 26 14 S 1014,9 59 0,0
21.09.2018 17:00:00 25,0 13,5 19,5 21,0 18,9 10 6 37 20 WSW 1014,1 55 0,0
21.09.2018 16:00:00 27,2 12,0 27,1 20,8 18,9 18 10 30 16 WSW 1013,6 56 0,0
21.09.2018 15:00:00 28,0 11,5 29,2 20,5 18,9 19 10 33 18 SW 1013,3 60 0,0
21.09.2018 14:00:00 27,1 11,9 26,9 20,2 18,9 16 9 30 16 SSW 1014,2 54 0,0
21.09.2018 13:00:00 26,2 12,3 26,6 19,8 18,8 14 8 29 16 WSW 1014,8 57 0,0
21.09.2018 12:00:00 26,6 13,7 28,4 19,3 18,8 3 1 10 5 E 1014,7 53 0,0
21.09.2018 11:00:00 24,7 12,9 25,3 19,0 18,8 3 1 8 4 E 1015,7 52 0,0
21.09.2018 10:00:00 20,5 13,2 22,0 19,0 18,9 2 1 8 5 NW 1016,4 42 0,0
21.09.2018 09:00:00 18,1 12,8 13,8 19,0 18,9 6 3 11 6 E 1016,5 37 0,0
21.09.2018 08:00:00 14,6 11,7 12,5 19,2 18,9 7 4 17 9 ENE 1017,0 20 0,0
21.09.2018 07:00:00 13,8 11,5 11,5 19,4 18,9 6 3 15 8 E 1016,6 19 0,0
21.09.2018 06:00:00 13,6 11,3 11,4 19,6 18,8 6 3 11 6 NE 1017,0 20 0,0
21.09.2018 05:00:00 14,2 11,4 12,3 19,8 18,9 5 3 15 8 ENE 1017,1 33 0,0
21.09.2018 04:00:00 14,5 11,5 12,0 20,1 18,9 5 3 14 8 E 1017,3 38 0,0
21.09.2018 03:00:00 15,1 11,9 13,5 20,4 18,9 13 7 16 9 NE 1017,3 29 0,0
21.09.2018 02:00:00 15,7 11,9 14,3 20,7 18,9 14 8 16 9 ENE 1017,3 40 0,0
21.09.2018 01:00:00 16,6 11,9 14,8 20,9 18,8 11 6 16 9 NE 1017,2 50 0,0
21.09.2018 00:00:00 17,4 12,5 15,4 21,2 18,8 11 6 14 8 NNE 1017,1 55 0,0
20.09.2018 23:00:00 18,0 12,4 15,7 21,5 18,8 10 5 14 8 NE 1017,1 56 0,0
20.09.2018 22:00:00 19,2 12,7 17,2 21,8 18,8 7 4 15 8 N 1016,8 51 0,0
20.09.2018 21:00:00 20,3 13,0 18,7 22,0 18,8 13 7 15 8 NE 1016,3 59 0,0
20.09.2018 20:00:00 24,1 12,7 18,2 22,2 18,8 3 1 11 6 N 1015,3 15 0,0
20.09.2018 19:00:00 28,6 11,6 27,6 22,3 18,8 7 4 15 8 WSW 1014,4 60 0,0
20.09.2018 18:00:00 30,0 10,0 33,1 22,1 18,8 5 3 19 10 WNW 1014,2 56 0,0
20.09.2018 17:00:00 30,0 9,0 34,1 21,8 18,8 7 4 21 12 W 1014,6 57 0,0

tt = temperature
td = dewpoint
tt 5cm = temperature 5cm
tt -20cm = temperature -20cm
tt -100cm = temperature -100cm
ff = wind speed
fx = gusts
dd = wind direction
ppp = reduced air pressure
vv = visibility
rr = precipitation

Next stations